Location: Larch Mountain
(45.5297°N, 122.0872°W)
Time: 17:20:48
(UTC-07:00)

ISS - All Passes

Search period start: 01 September 2015 00:00
Search period end: 11 September 2015 00:00
Orbit: 400 x 402 km, 51.6° (Epoch: 01 September)

Date Brightness Start Highest point End Pass type
(mag) Time Alt. Az. Time Alt. Az. Time Alt. Az.
01 Sep - 09:11:51 10° SSW 09:14:48 33° SE 09:17:47 10° ENE daylight
01 Sep - 10:47:59 10° W 10:51:09 46° NNW 10:54:19 10° NE daylight
01 Sep - 12:25:14 10° WNW 12:28:03 26° N 12:30:54 10° ENE daylight
01 Sep - 14:01:51 10° NW 14:05:00 43° NNE 14:08:07 10° E daylight
01 Sep - 15:38:20 10° WNW 15:41:23 37° SW 15:44:25 10° SSE daylight
02 Sep - 08:19:20 10° S 08:21:40 19° SE 08:24:04 10° E daylight
02 Sep - 09:54:33 10° WSW 09:57:48 71° NNW 10:01:04 10° ENE daylight
02 Sep - 11:31:42 10° WNW 11:34:34 28° N 11:37:28 10° NE daylight
02 Sep - 13:08:34 10° NW 13:11:34 33° NNE 13:14:34 10° E daylight
02 Sep - 14:44:55 10° WNW 14:48:10 68° SSW 14:51:24 10° SE daylight
02 Sep - 16:23:42 10° SW 16:24:05 10° SW 16:24:19 10° SW daylight
03 Sep - 07:28:11 10° SE 07:28:36 10° SE 07:29:08 10° ESE daylight
03 Sep - 09:01:17 10° SW 09:04:30 68° SSE 09:07:46 10° ENE daylight
03 Sep - 10:38:07 10° W 10:41:07 33° NNW 10:44:08 10° NE daylight
03 Sep - 12:15:14 10° NW 12:18:07 28° N 12:21:00 10° ENE daylight
03 Sep - 13:51:38 10° WNW 13:54:54 72° NNE 13:58:08 10° ESE daylight
03 Sep - 15:28:39 10° W 15:31:01 18° SW 15:33:20 10° S daylight
04 Sep - 08:08:15 10° SSW 08:11:18 38° SE 08:14:22 10° ENE daylight
04 Sep - 09:44:34 10° W 09:47:42 43° NNW 09:50:51 10° NE daylight
04 Sep - 11:21:48 10° WNW 11:24:38 26° N 11:27:28 10° ENE daylight
04 Sep - 12:58:22 10° NW 13:01:32 47° NNE 13:04:42 10° E daylight
04 Sep - 14:34:55 10° WNW 14:37:53 32° SW 14:40:50 10° SSE daylight
05 Sep - 07:15:37 10° S 07:18:09 21° SE 07:20:44 10° E daylight
05 Sep - 08:51:06 10° WSW 08:54:20 64° NNW 08:57:35 10° ENE daylight
05 Sep - 10:28:17 10° WNW 10:31:09 27° N 10:34:01 10° NE daylight
05 Sep - 12:05:05 10° NW 12:08:08 35° NNE 12:11:10 10° E daylight
05 Sep - 13:41:28 10° WNW 13:44:41 59° SW 13:47:53 10° SE daylight
06 Sep - 06:23:48 10° SSE 06:25:04 12° SE 06:26:27 10° ESE daylight
06 Sep - 07:57:47 10° SW 08:01:02 78° SSE 08:04:19 10° ENE daylight
06 Sep - 09:34:43 10° WNW 09:37:42 31° NNW 09:40:40 10° NE daylight
06 Sep - 11:11:46 10° NW 11:14:41 29° N 11:17:36 10° ENE daylight
06 Sep - 12:48:09 10° WNW 12:51:25 81° NNE 12:54:41 10° ESE daylight
06 Sep - 14:25:22 10° W 14:27:29 16° SW 14:29:34 10° S daylight
07 Sep - 07:04:41 10° SW 07:07:48 43° SE 07:10:56 10° ENE daylight
07 Sep - 08:41:10 10° W 08:44:15 40° NNW 08:47:22 10° NE daylight
07 Sep - 10:18:22 10° WNW 10:21:13 27° N 10:24:03 10° ENE daylight
07 Sep - 11:54:53 10° NW 11:58:05 51° NNE 12:01:17 10° E daylight
07 Sep - 13:31:31 10° WNW 13:34:23 28° SW 13:37:13 10° SSE daylight
08 Sep - 06:11:57 10° SSW 06:14:39 24° SE 06:17:23 10° E daylight
08 Sep - 07:47:40 10° WSW 07:50:53 57° NNW 07:54:07 10° ENE daylight
08 Sep - 09:24:52 10° WNW 09:27:44 27° N 09:30:35 10° ENE daylight
08 Sep - 11:01:37 10° NW 11:04:41 37° NNE 11:07:46 10° E daylight
08 Sep - 12:38:01 10° WNW 12:41:12 51° SW 12:44:22 10° SE daylight
09 Sep - 05:19:50 10° SSE 05:21:33 14° SE 05:23:22 10° E visible
09 Sep - 06:54:18 10° WSW 06:57:34 88° SE 07:00:51 10° ENE daylight
09 Sep - 08:31:19 10° WNW 08:34:16 30° N 08:37:13 10° NE daylight
09 Sep - 10:08:19 10° NW 10:11:16 30° N 10:14:12 10° ENE daylight
09 Sep - 11:44:41 10° WNW 11:47:58 90° SW 11:51:13 10° ESE daylight
09 Sep - 13:22:08 10° W 13:23:59 14° SW 13:25:44 10° SSW daylight
10 Sep - 06:01:09 10° SW 06:04:19 50° SE 06:07:31 10° ENE visible
10 Sep - 07:37:45 10° W 07:40:50 37° NNW 07:43:55 10° NE daylight
10 Sep - 09:14:56 10° WNW 09:17:48 27° N 09:20:39 10° ENE daylight
10 Sep - 10:51:25 10° WNW 10:54:38 57° NNE 10:57:52 10° ESE daylight
10 Sep - 12:28:08 10° W 12:30:53 25° SW 12:33:35 10° SSE daylight
